Location: Carri�res
(48.9069°N, 2.1792°E)
Time: 13:07:33
(UTC+00:00)

SL-24 R/B - Pass Details

Date: 17 January 2021
Orbit: 625 x 1075 km, 98.0° (Epoch: 25 February)

Event Time Altitude Azimuth Distance (km) Brightness Sun altitude
Rises 17:14:25 0° 164° (SSE) 2,898 7.6 -8.0°
Reaches altitude 10° 17:16:34 10° 164° (SSE) 1,998 6.8 -8.3°
Maximum altitude 17:20:52 90° 93° (E) 648 4.2 -9.0°
Drops below altitude 10° 17:25:26 10° 346° (NNW) 2,116 6.7 -9.7°
Sets 17:27:45 0° 347° (NNW) 3,086 7.6 -10.1°
